NOZ4PD ENGM-EKCH

Flight info

Callsign NOZ4PD
Flight time 0h 52m
Altitude 31000
Route OKSAT L996 GETPA/N0459F350 L996 KELIN DCT TOPLA L996 ERNOV
Aircraft B738/M-SDE2E3FGHIRWXY/LB1

Departure

Time 2026-05-07 13:58
Airport Oslo-Gardermoen International Airport (ENGM)

Arrival

Time 2026-05-07 14:51
Airport Copenhagen Kastrup Airport (EKCH)
Time Latitude Longitude Altitude Speed Heading
2026-05-07 13:30 60.19419 11.10463 678 ft 0 kts 197°
2026-05-07 13:49 60.19420 11.10464 681 ft 1 kts 197°
2026-05-07 13:49 60.19427 11.10468 679 ft 1 kts 197°
2026-05-07 13:50 60.19435 11.10473 678 ft 1 kts 197°
2026-05-07 13:50 60.19442 11.10477 679 ft 1 kts 197°
2026-05-07 13:50 60.19449 11.10482 677 ft 1 kts 197°
2026-05-07 13:50 60.19456 11.10486 676 ft 1 kts 197°
2026-05-07 13:51 60.19465 11.10492 675 ft 1 kts 197°
2026-05-07 13:51 60.19474 11.10497 676 ft 1 kts 197°
2026-05-07 13:51 60.19488 11.10505 679 ft 2 kts 195°
2026-05-07 13:51 60.19502 11.10513 679 ft 2 kts 196°
2026-05-07 13:52 60.19515 11.10515 681 ft 2 kts 142°
2026-05-07 13:52 60.19520 11.10507 676 ft 1 kts 107°
2026-05-07 13:52 60.19518 11.10531 681 ft 2 kts 99°
2026-05-07 13:52 60.19514 11.10567 681 ft 3 kts 102°
2026-05-07 13:53 60.19508 11.10613 681 ft 3 kts 105°
2026-05-07 13:53 60.19500 11.10666 681 ft 4 kts 107°
2026-05-07 13:53 60.19497 11.10690 681 ft 0 kts 107°
2026-05-07 13:54 60.19488 11.10749 679 ft 9 kts 106°
2026-05-07 13:54 60.19466 11.10907 682 ft 15 kts 106°
2026-05-07 13:55 60.19433 11.11133 680 ft 17 kts 106°
2026-05-07 13:55 60.19456 11.11303 683 ft 13 kts 30°
2026-05-07 13:55 60.19545 11.11355 684 ft 14 kts 15°
2026-05-07 13:55 60.19654 11.11417 681 ft 19 kts 16°
2026-05-07 13:56 60.19789 11.11495 685 ft 21 kts 16°
2026-05-07 13:56 60.19930 11.11577 679 ft 21 kts 16°
2026-05-07 13:56 60.20060 11.11653 684 ft 16 kts 23°
2026-05-07 13:56 60.20074 11.11850 682 ft 16 kts 105°
2026-05-07 13:57 60.20045 11.12056 687 ft 15 kts 108°
2026-05-07 13:57 60.19974 11.12160 686 ft 11 kts 183°
2026-05-07 13:57 60.19955 11.12152 686 ft 0 kts 197°
2026-05-07 13:57 60.19948 11.12147 686 ft 3 kts 196°
2026-05-07 13:58 60.19818 11.12073 687 ft 50 kts 196°
2026-05-07 13:58 60.19250 11.11745 679 ft 118 kts 196°
2026-05-07 13:58 60.18280 11.11174 730 ft 166 kts 197°
2026-05-07 13:58 60.17170 11.10535 1390 ft 169 kts 195°
2026-05-07 13:59 60.16038 11.09947 2285 ft 164 kts 195°
2026-05-07 13:59 60.14931 11.09467 3045 ft 168 kts 183°
2026-05-07 13:59 60.13771 11.09766 3846 ft 169 kts 167°
2026-05-07 13:59 60.12627 11.10415 4593 ft 174 kts 155°
2026-05-07 14:00 60.11706 11.11976 5360 ft 175 kts 135°
2026-05-07 14:00 60.10845 11.13730 6107 ft 177 kts 135°
2026-05-07 14:00 60.09975 11.15519 6800 ft 183 kts 135°
2026-05-07 14:00 60.09055 11.17434 7341 ft 196 kts 135°
2026-05-07 14:01 60.07964 11.19166 7822 ft 209 kts 151°
2026-05-07 14:01 60.06605 11.20604 8010 ft 233 kts 155°
2026-05-07 14:01 60.05068 11.22127 8219 ft 260 kts 155°
2026-05-07 14:01 60.03378 11.23809 8584 ft 280 kts 155°
2026-05-07 14:02 60.01608 11.25590 9281 ft 288 kts 155°
2026-05-07 14:02 59.99824 11.27402 10057 ft 292 kts 155°
2026-05-07 14:02 59.97978 11.29290 10540 ft 308 kts 155°
2026-05-07 14:02 59.95992 11.31329 10699 ft 332 kts 155°
2026-05-07 14:03 59.93873 11.33513 10887 ft 354 kts 154°
2026-05-07 14:03 59.91624 11.35839 11135 ft 371 kts 154°
2026-05-07 14:03 59.89307 11.38240 11692 ft 378 kts 154°
2026-05-07 14:03 59.86962 11.40672 12410 ft 381 kts 155°
2026-05-07 14:04 59.84589 11.43133 13168 ft 384 kts 155°
2026-05-07 14:04 59.82236 11.45567 13895 ft 388 kts 155°
2026-05-07 14:04 59.79824 11.48057 14536 ft 393 kts 155°
2026-05-07 14:04 59.77375 11.50580 15175 ft 398 kts 156°
2026-05-07 14:05 59.74896 11.53130 15838 ft 403 kts 156°
2026-05-07 14:05 59.72391 11.55702 16477 ft 408 kts 156°
2026-05-07 14:05 59.69847 11.58309 17112 ft 413 kts 156°
2026-05-07 14:05 59.67278 11.60937 17738 ft 418 kts 156°
2026-05-07 14:06 59.64680 11.63590 18313 ft 423 kts 156°
2026-05-07 14:06 59.62056 11.66267 18875 ft 426 kts 157°
2026-05-07 14:06 59.59442 11.68928 19413 ft 430 kts 157°
2026-05-07 14:06 59.56766 11.71648 19923 ft 435 kts 157°
2026-05-07 14:07 59.54057 11.74397 20429 ft 439 kts 157°
2026-05-07 14:07 59.51328 11.77161 20934 ft 443 kts 157°
2026-05-07 14:07 59.48572 11.79947 21437 ft 447 kts 157°
2026-05-07 14:07 59.45790 11.82755 21903 ft 451 kts 157°
2026-05-07 14:08 59.42987 11.85580 22386 ft 455 kts 157°
2026-05-07 14:08 59.40157 11.88426 22849 ft 459 kts 158°
2026-05-07 14:08 59.37325 11.91263 23304 ft 462 kts 158°
2026-05-07 14:08 59.34336 11.93663 23716 ft 459 kts 168°
2026-05-07 14:09 59.31235 11.94988 24086 ft 454 kts 178°
2026-05-07 14:09 59.28136 11.95389 24507 ft 449 kts 187°
2026-05-07 14:09 59.25018 11.95031 24889 ft 450 kts 189°
2026-05-07 14:09 59.21863 11.94980 25216 ft 460 kts 181°
2026-05-07 14:10 59.18660 11.95657 25564 ft 464 kts 178°
2026-05-07 14:10 59.15447 11.96437 25923 ft 467 kts 178°
2026-05-07 14:10 59.12215 11.97234 26264 ft 469 kts 178°
2026-05-07 14:10 59.10065 11.97756 26479 ft 471 kts 178°
2026-05-07 14:11 59.06802 11.98528 26796 ft 473 kts 179°
2026-05-07 14:11 59.03523 11.99279 27079 ft 475 kts 178°
2026-05-07 14:11 59.00230 12.00016 27442 ft 477 kts 178°
2026-05-07 14:11 58.96930 12.00744 27765 ft 478 kts 179°
2026-05-07 14:12 58.93618 12.01467 28144 ft 479 kts 179°
2026-05-07 14:12 58.90309 12.02188 28599 ft 478 kts 179°
2026-05-07 14:12 58.87009 12.02907 29090 ft 476 kts 179°
2026-05-07 14:12 58.83716 12.03622 29534 ft 476 kts 179°
2026-05-07 14:13 58.80427 12.04335 29940 ft 476 kts 179°
2026-05-07 14:13 58.77143 12.05045 30325 ft 475 kts 179°
2026-05-07 14:13 58.73856 12.05752 30670 ft 474 kts 179°
2026-05-07 14:13 58.70578 12.06454 31045 ft 474 kts 179°
2026-05-07 14:14 58.67290 12.07155 31071 ft 478 kts 179°
2026-05-07 14:14 58.60714 12.08568 31101 ft 476 kts 179°
2026-05-07 14:15 58.54168 12.09978 31096 ft 472 kts 179°
2026-05-07 14:15 58.47635 12.11371 31089 ft 472 kts 179°
2026-05-07 14:16 58.41091 12.12757 31092 ft 472 kts 178°
2026-05-07 14:16 58.34542 12.14140 31088 ft 473 kts 178°
2026-05-07 14:17 58.28001 12.15517 31089 ft 473 kts 178°
2026-05-07 14:17 58.21485 12.16884 31089 ft 474 kts 178°
2026-05-07 14:18 58.14923 12.18256 31086 ft 474 kts 178°
2026-05-07 14:18 58.08369 12.19622 31087 ft 474 kts 178°
2026-05-07 14:19 58.01806 12.20984 31094 ft 474 kts 178°
2026-05-07 14:19 57.95286 12.22331 31094 ft 474 kts 178°
2026-05-07 14:20 57.88714 12.23685 31062 ft 474 kts 178°
2026-05-07 14:20 57.82159 12.25030 31069 ft 473 kts 177°
2026-05-07 14:21 57.75660 12.26359 31073 ft 472 kts 177°
2026-05-07 14:21 57.69127 12.27690 31077 ft 472 kts 177°
2026-05-07 14:22 57.62585 12.29018 31098 ft 472 kts 177°
2026-05-07 14:22 57.56045 12.30340 31083 ft 472 kts 177°
2026-05-07 14:23 57.49511 12.31657 31096 ft 472 kts 177°
2026-05-07 14:23 57.43013 12.32962 31106 ft 472 kts 177°
2026-05-07 14:24 57.36479 12.34270 31099 ft 472 kts 177°
2026-05-07 14:24 57.29950 12.35571 31091 ft 472 kts 176°
2026-05-07 14:25 57.23410 12.36870 31104 ft 472 kts 176°
2026-05-07 14:25 57.16876 12.38164 31107 ft 472 kts 176°
2026-05-07 14:26 57.10387 12.39443 30814 ft 475 kts 176°
2026-05-07 14:26 57.07082 12.40092 30091 ft 476 kts 176°
2026-05-07 14:26 57.03798 12.40738 29192 ft 474 kts 176°
2026-05-07 14:26 57.00525 12.41380 28298 ft 472 kts 176°
2026-05-07 14:27 56.97263 12.42020 27377 ft 471 kts 176°
2026-05-07 14:27 56.93994 12.42659 26396 ft 471 kts 176°
2026-05-07 14:27 56.90732 12.43295 25436 ft 472 kts 176°
2026-05-07 14:27 56.87481 12.43928 24738 ft 465 kts 176°
2026-05-07 14:28 56.84281 12.44552 24032 ft 460 kts 176°
2026-05-07 14:28 56.81110 12.45168 23250 ft 455 kts 176°
2026-05-07 14:28 56.77979 12.45775 22473 ft 450 kts 176°
2026-05-07 14:28 56.74890 12.46373 21748 ft 443 kts 176°
2026-05-07 14:29 56.71882 12.46953 21083 ft 437 kts 176°
2026-05-07 14:29 56.68875 12.47532 20380 ft 432 kts 176°
2026-05-07 14:29 56.65899 12.48104 19698 ft 427 kts 176°
2026-05-07 14:29 56.62957 12.48669 19034 ft 422 kts 176°
2026-05-07 14:30 56.60051 12.49226 18357 ft 418 kts 176°
2026-05-07 14:30 56.57171 12.49777 17602 ft 414 kts 175°
2026-05-07 14:30 56.54348 12.50316 16923 ft 409 kts 175°
2026-05-07 14:30 56.51496 12.50861 16243 ft 405 kts 175°
2026-05-07 14:31 56.48745 12.51385 15593 ft 400 kts 175°
2026-05-07 14:31 56.45986 12.51910 14939 ft 396 kts 175°
2026-05-07 14:31 56.43250 12.52430 14304 ft 393 kts 175°
2026-05-07 14:31 56.40545 12.52943 13654 ft 389 kts 175°
2026-05-07 14:32 56.37863 12.53450 12960 ft 386 kts 175°
2026-05-07 14:32 56.35203 12.53954 12315 ft 381 kts 175°
2026-05-07 14:32 56.32592 12.54447 12039 ft 369 kts 174°
2026-05-07 14:32 56.30088 12.54921 11875 ft 354 kts 175°
2026-05-07 14:33 56.27711 12.55370 11725 ft 341 kts 175°
2026-05-07 14:33 56.25384 12.55808 11581 ft 330 kts 175°
2026-05-07 14:33 56.23139 12.56230 11451 ft 319 kts 174°
2026-05-07 14:33 56.20964 12.56639 11316 ft 308 kts 175°
2026-05-07 14:34 56.18857 12.57033 11194 ft 299 kts 174°
2026-05-07 14:34 56.16840 12.57403 11061 ft 291 kts 175°
2026-05-07 14:34 56.14802 12.57547 10866 ft 290 kts 179°
2026-05-07 14:34 56.12803 12.57551 10677 ft 291 kts 180°
2026-05-07 14:35 56.10769 12.57534 10471 ft 292 kts 180°
2026-05-07 14:35 56.08736 12.57522 10266 ft 291 kts 180°
2026-05-07 14:35 56.06728 12.57520 10059 ft 286 kts 179°
2026-05-07 14:35 56.04751 12.57526 9839 ft 281 kts 179°
2026-05-07 14:36 56.02800 12.57537 9623 ft 280 kts 179°
2026-05-07 14:36 56.00848 12.57551 9426 ft 281 kts 179°
2026-05-07 14:36 55.98885 12.57568 9231 ft 281 kts 179°
2026-05-07 14:36 55.96932 12.57585 9023 ft 279 kts 179°
2026-05-07 14:37 55.95023 12.57601 8811 ft 276 kts 179°
2026-05-07 14:37 55.91214 12.57636 8440 ft 272 kts 179°
2026-05-07 14:37 55.89326 12.57653 8248 ft 271 kts 179°
2026-05-07 14:38 55.87438 12.57648 8047 ft 270 kts 183°
2026-05-07 14:38 55.85617 12.56894 7867 ft 269 kts 200°
2026-05-07 14:38 55.83855 12.55711 7660 ft 272 kts 201°
2026-05-07 14:38 55.82077 12.54507 7407 ft 274 kts 201°
2026-05-07 14:39 55.80318 12.53329 7204 ft 272 kts 201°
2026-05-07 14:39 55.78548 12.52157 7008 ft 270 kts 200°
2026-05-07 14:39 55.76789 12.51003 6811 ft 269 kts 200°
2026-05-07 14:39 55.75040 12.49863 6619 ft 266 kts 200°
2026-05-07 14:40 55.73306 12.48739 6426 ft 264 kts 200°
2026-05-07 14:40 55.71589 12.47628 6225 ft 261 kts 201°
2026-05-07 14:40 55.69885 12.46529 6040 ft 260 kts 200°
2026-05-07 14:40 55.68188 12.45435 5851 ft 261 kts 201°
2026-05-07 14:41 55.66472 12.44330 5685 ft 264 kts 200°
2026-05-07 14:41 55.64751 12.43224 5484 ft 267 kts 200°
2026-05-07 14:41 55.63006 12.42106 5297 ft 265 kts 200°
2026-05-07 14:41 55.61270 12.40994 5108 ft 264 kts 200°
2026-05-07 14:42 55.59602 12.39664 4936 ft 262 kts 216°
2026-05-07 14:42 55.58231 12.37606 4817 ft 256 kts 224°
2026-05-07 14:42 55.56918 12.35508 4656 ft 251 kts 223°
2026-05-07 14:42 55.55635 12.33487 4422 ft 244 kts 223°
2026-05-07 14:43 55.54388 12.31546 4155 ft 238 kts 223°
2026-05-07 14:43 55.53153 12.29641 3891 ft 234 kts 222°
2026-05-07 14:43 55.51912 12.27738 3580 ft 237 kts 222°
2026-05-07 14:43 55.50661 12.25823 3273 ft 239 kts 222°
2026-05-07 14:44 55.49408 12.23903 3055 ft 236 kts 223°
2026-05-07 14:44 55.48207 12.22060 3021 ft 222 kts 214°
2026-05-07 14:44 55.46799 12.21264 2982 ft 208 kts 177°
2026-05-07 14:44 55.45502 12.22039 2970 ft 196 kts 138°
2026-05-07 14:45 55.44778 12.23973 2877 ft 188 kts 99°
2026-05-07 14:45 55.44614 12.26244 2779 ft 187 kts 91°
2026-05-07 14:45 55.44717 12.28503 2669 ft 183 kts 78°
2026-05-07 14:45 55.44911 12.30738 2552 ft 187 kts 79°
2026-05-07 14:46 55.45108 12.32981 2497 ft 184 kts 79°
2026-05-07 14:46 55.45303 12.35192 2493 ft 182 kts 79°
2026-05-07 14:46 55.45495 12.37370 2503 ft 183 kts 79°
2026-05-07 14:46 55.45810 12.39548 2488 ft 184 kts 56°
2026-05-07 14:47 55.46752 12.40965 2535 ft 180 kts 32°
2026-05-07 14:47 55.47694 12.42456 2529 ft 183 kts 45°
2026-05-07 14:47 55.48630 12.43979 2510 ft 182 kts 39°
2026-05-07 14:47 55.49561 12.45378 2493 ft 170 kts 39°
2026-05-07 14:48 55.50435 12.46718 2345 ft 163 kts 39°
2026-05-07 14:48 55.51283 12.48032 2134 ft 161 kts 40°
2026-05-07 14:48 55.52124 12.49337 1917 ft 161 kts 40°
2026-05-07 14:48 55.52961 12.50638 1695 ft 158 kts 40°
2026-05-07 14:49 55.53779 12.51909 1499 ft 156 kts 40°
2026-05-07 14:49 55.54605 12.53191 1277 ft 157 kts 40°
2026-05-07 14:49 55.55400 12.54425 1069 ft 149 kts 40°
2026-05-07 14:49 55.56166 12.55614 873 ft 147 kts 40°
2026-05-07 14:50 55.56947 12.56824 658 ft 150 kts 40°
2026-05-07 14:50 55.57729 12.58041 440 ft 148 kts 39°
2026-05-07 14:50 55.58498 12.59233 237 ft 145 kts 39°
2026-05-07 14:50 55.59236 12.60373 66 ft 137 kts 39°
2026-05-07 14:51 55.59883 12.61372 16 ft 106 kts 42°
2026-05-07 14:51 55.60323 12.62061 16 ft 67 kts 42°
2026-05-07 14:51 55.60558 12.62314 19 ft 25 kts 17°
2026-05-07 14:51 55.60648 12.62348 18 ft 0 kts 10°
2026-05-07 14:52 55.60655 12.62350 18 ft 4 kts 10°
2026-05-07 14:53 55.60713 12.62371 17 ft 13 kts 12°
2026-05-07 14:53 55.60814 12.62443 17 ft 19 kts 36°
2026-05-07 14:53 55.60923 12.62608 17 ft 23 kts 41°
2026-05-07 14:53 55.61051 12.62808 16 ft 26 kts 41°
2026-05-07 14:54 55.61197 12.63032 16 ft 29 kts 41°
2026-05-07 14:54 55.61357 12.63279 16 ft 31 kts 40°
2026-05-07 14:54 55.61516 12.63525 16 ft 30 kts 40°
2026-05-07 14:54 55.61665 12.63752 16 ft 28 kts 41°
2026-05-07 14:55 55.61804 12.63973 16 ft 26 kts 41°
2026-05-07 14:55 55.61951 12.64139 16 ft 24 kts 25°
2026-05-07 14:55 55.62098 12.64262 16 ft 23 kts 25°
2026-05-07 14:55 55.62240 12.64349 14 ft 21 kts 342°
2026-05-07 14:56 55.62325 12.64152 13 ft 22 kts 302°
2026-05-07 14:56 55.62415 12.63910 14 ft 24 kts 304°
2026-05-07 14:56 55.62553 12.63774 16 ft 23 kts 358°
2026-05-07 14:56 55.62698 12.63871 16 ft 22 kts 33°
2026-05-07 14:57 55.62795 12.63957 16 ft 13 kts 355°
2026-05-07 14:57 55.62841 12.63844 16 ft 12 kts 284°
2026-05-07 14:57 55.62852 12.63794 18 ft 0 kts 313°
2026-05-07 14:57 55.62868 12.63796 16 ft 4 kts
2026-05-07 14:58 55.62897 12.63806 16 ft 3 kts 12°
2026-05-07 14:58 55.62899 12.63807 16 ft 0 kts 12°